Location: Newark
(52.0267°N, 0.2640°W)
Time: 13:12:10
(UTC+00:00)

ISS - Visible Passes

Search period start: 08 March 2021 00:00
Search period end: 18 March 2021 00:00
Orbit: 417 x 422 km, 51.6° (Epoch: 07 March)

Date Brightness Start Highest point End Pass type
(mag) Time Alt. Az. Time Alt. Az. Time Alt. Az.
08 Mar -0.4 03:13:12 11° E 03:13:12 11° E 03:13:18 10° E visible
08 Mar -3.5 04:46:09 45° SW 04:46:39 50° SSW 04:49:55 10° SE visible
09 Mar -2.2 04:00:40 30° ESE 04:00:40 30° ESE 04:02:32 10° ESE visible
09 Mar -2.2 05:33:38 13° WSW 05:35:36 21° SW 05:38:12 10° SSE visible
10 Mar -2.7 04:48:15 29° SSW 04:48:16 29° SSW 04:51:13 10° SSE visible
11 Mar -1.5 04:02:59 18° SE 04:02:59 18° SE 04:04:02 10° SE visible
11 Mar -1.4 05:36:48 10° SW 05:36:58 10° SW 05:37:09 10° SW visible
12 Mar -1.5 04:50:51 13° SSW 04:50:51 13° SSW 04:51:42 10° S visible
